#timestamp,LO_Frequency,Hit,StdDev 
1459062015.3,286046992.1,P
1459062035.1,286046988.8,P
1459062036.0,286046988.8,P
1459062055.8,286046986.5,Y
1459062075.7,286046996.2,P
1459062095.5,286046993.2,N
1459062115.3,286046991.3,P
1459062135.2,286046993.2,Y
1459062155.0,286046996.3,P
1459062155.9,286046996.3,N
1459062175.7,286046995.9,N
1459062195.6,286046995.6,Y
1459062215.4,286046998.6,P
1459062235.2,286047000.7,N
1459062255.1,286046999.4,N
1459062256.0,286046999.4,N
1459062275.8,286046996.8,N
1459062295.6,286046999.0,N
1459062315.5,286046997.4,N
1459062335.3,286046995.0,Y
1459062355.1,286046995.1,P
1459062375.9,286046993.3,P
1459062395.7,286046995.2,N
1459062415.5,286046995.7,N
1459062435.4,286046993.6,Y
1459062455.2,286047000.7,P
1459062475.0,286047002.7,N
1459062475.9,286047002.7,N
1459062495.8,286047002.4,N
1459062515.6,286046998.2,N
1459062535.4,286047000.8,N
1459062555.3,286047000.9,N
1459062575.1,286046996.7,N
1459062576.0,286046996.7,N
1459062595.8,286046999.8,N
1459062615.7,286047003.8,N
1459062635.5,286047007.4,N
1459062655.3,286047007.3,N
1459062675.1,286047008.8,N
1459062695.9,286047009.2,N
1459062715.7,286047004.4,N
1459062735.5,286047010.4,N
1459062755.4,286047007.7,N
1459062775.2,286047010.3,N
1459062795.0,286047010.6,N
1459062795.9,286047010.6,N
1459062815.8,286047006.5,N
1459062835.6,286047006.4,N
1459062855.4,286047005.4,N
1459062875.3,286047005.2,N
1459062895.1,286047002.0,N
1459062896.0,286047002.0,N
1459062915.8,286047001.0,N
1459062935.7,286047002.5,N
1459062955.5,286047007.5,N
1459062975.3,286047007.7,N
1459062995.2,286047010.3,N
1459063015.9,286047009.9,N
1459063035.7,286047010.5,N
1459063055.5,286047009.7,N
1459063075.4,286047012.2,N
1459063095.2,286047012.8,Y
1459063115.0,286047007.7,P
1459063116.0,286047007.7,P
1459063135.8,286047008.5,P
1459063155.6,286047007.9,Y
1459063175.5,286047001.7,P
1459063195.3,286047001.0,N
1459063215.1,286046998.5,N
1459063235.8,286047001.1,N
1459063255.7,286047000.5,N
1459063275.5,286047002.3,N
1459063295.3,286047000.0,N
1459063315.2,286047001.4,N
1459063335.9,286047002.6,N
1459063355.7,286047000.7,N
1459063375.6,286047002.8,N
1459063395.4,286047002.8,N
1459063415.2,286047001.9,N
1459063435.1,286047003.1,N
1459063436.0,286047003.1,N
1459063455.8,286047001.5,N
1459063475.6,286047004.4,N
1459063495.4,286047001.6,N
1459063515.3,286047002.6,N
1459063535.1,286047008.1,Y
1459063555.9,286047053.8,P
1459063575.7,286047083.1,P
1459063595.5,286047105.2,P
1459063615.3,286047086.7,N
1459063635.2,286047072.3,N
1459063655.0,286047060.0,N
1459063655.9,286047060.0,N
1459063675.7,286047051.2,N
1459063695.6,286047047.4,N
1459063715.4,286047038.8,N
1459063735.2,286047037.6,N
1459063755.1,286047033.7,N
1459063756.0,286047033.7,N
1459063775.8,286047032.4,N
1459063795.6,286047028.6,N
1459063815.5,286047028.8,N
1459063835.3,286047028.1,N
1459063855.1,286047024.4,N
1459063875.9,286047029.0,N
1459063895.7,286047029.2,N
1459063915.5,286047027.9,N
1459063935.3,286047027.5,N
1459063955.2,286047028.3,N
1459063975.0,286047025.9,N
1459063975.9,286047025.9,N
1459063995.7,286047028.4,N
1459064015.6,286047027.8,N
1459064035.4,286047028.3,N
1459064055.2,286047024.0,N
1459064075.1,286047022.9,N
1459064076.0,286047022.9,N
1459064095.8,286047023.6,N
1459064115.6,286047022.0,N
1459064135.5,286047022.2,N
1459064155.3,286047020.6,N
1459064175.1,286047022.0,N
1459064195.9,286047020.0,N
1459064215.7,286047014.5,N
1459064235.5,286047017.1,N
1459064255.4,286047028.2,Y
1459064275.2,286047039.2,P
1459064295.0,286047068.7,P
1459064295.9,286047068.7,P
1459064315.8,286047091.5,Y
1459064335.6,286047056.2,P
1459064355.4,286047071.4,P
1459064375.3,286047081.6,P
1459064395.1,286047092.6,Y
1459064415.8,286047038.2,P
1459064435.7,286047044.7,P
1459064455.5,286047056.7,P
1459064475.3,286047063.8,Y
1459064495.2,286047017.8,P
1459064515.9,286047027.9,N
1459064535.7,286047034.3,N
1459064555.6,286047042.4,Y
1459064575.4,286047016.1,P
1459064595.2,286047021.7,N
1459064615.1,286047024.3,P
1459064616.0,286047024.3,Y
1459064635.8,286047000.0,P
1459064655.6,286047001.4,N
1459064675.5,286047009.6,N
1459064695.3,286047011.9,N
1459064715.1,286047013.8,N
1459064735.9,286047015.2,N
1459064755.7,286047014.5,N
1459064775.5,286047014.2,N
1459064795.3,286047014.4,N
1459064815.2,286047021.3,Y
1459064835.0,286047011.4,P
1459064835.9,286047011.4,P
1459064855.8,286047016.5,P
1459064875.6,286047014.3,Y
1459064895.4,286046997.7,P
1459064915.3,286046994.1,N
1459064935.1,286046996.8,N
1459064936.0,286046996.8,N
1459064955.8,286047006.4,N
1459064975.7,286047011.4,N
1459064995.5,286047011.6,N
1459065015.3,286047016.1,N
1459065035.1,286047016.6,N
1459065055.9,286047019.5,N
1459065075.7,286047019.7,N
1459065095.5,286047022.2,N
1459065115.4,286047022.2,N
1459065135.2,286047021.0,N
1459065155.0,286047025.4,N
1459065155.9,286047025.4,N
1459065175.8,286047029.4,N
1459065195.6,286047027.0,N
1459065215.4,286047029.1,N
1459065235.3,286047031.9,N
1459065255.1,286047033.8,N
1459065256.0,286047033.8,N
1459065275.8,286047032.9,N
1459065295.7,286047039.6,Y
1459065315.5,286047021.4,P
1459065335.3,286047023.6,P
1459065355.2,286047019.9,P
1459065375.9,286047020.2,Y
1459065395.7,286047003.6,P
1459065415.6,286047003.2,N
1459065435.4,286047002.6,N
1459065455.2,286047007.5,N
1459065475.1,286047003.5,N
1459065476.0,286047003.5,N
1459065495.8,286047006.3,N
1459065515.6,286047008.3,N
1459065535.4,286047010.6,N
1459065555.3,286047010.1,N
1459065575.1,286047006.3,N
1459065595.8,286047006.6,N
